Orbital Elements at Epoch 2459000.5 (2020-May-31.0) TDB
Reference: JPL 22 (heliocentric ecliptic J2000)
Element | Value | Uncertainty (1-sigma) | Units |
e | .183592426439129 | 4.8973e-08 | |
a | 2.540380207297852 | 8.5773e-09 | au |
q | 2.073985640962102 | 1.2608e-07 | au |
i | 1.330958543843032 | 5.2169e-06 | deg |
node | 6.142129988192852 | 0.00016834 | deg |
peri | 14.74941312975279 | 0.00016886 | deg |
M | 28.39234138967987 | 1.4541e-05 | deg |
tp | 2458883.860616631618 (2020-Feb-04.36061663) | 5.9484e-05 | TDB |
period | 1478.926215922453 4.05 | 7.4901e-06 2.051e-08 | d yr |
n | .2434198515951363 | 1.2328e-09 | deg/d |
Q | 3.006774773633601 | 1.0152e-08 | au |
|
| | Orbit Determination Parameters
Additional Information
|